Powrót do katalogu

CZ-6A DEB

AktywnySSO
NORAD 56593·DEBRIS·🇨🇳 China

Wystrzelony Nov 11, 2022 z Taiyuan Satellite Launch Center

Loading…

Następne Przeloty (najbliższe 24 godziny)

TLE

ŚwieżeSource: Space-Track

Epoka: Sep 14, 2026, 14:12 UTC

1 56593U 22151ADR 26257.59232320  .00001704  00000-0  48572-3 0  9998
2 56593  98.6524 303.9073 0118565 110.4446 250.9521 14.42530230178436

Śledź CZ-6A DEB w czasie rzeczywistym z AllMySat

Download on the App Store